| time (UTC) | temp F | wind direction | speed knots | gust knots | rain 1hr in | rain 24hr in | rain mn in | humidity % | barometer mb |
| 20260507234508 | 65 | 110 | 3.5 | 6.1 | 0.00 | 0.13 | 0.13 | 57 | 1012.0 |
| 20260507233012 | 64 | 152 | 3.5 | 5.2 | 0.00 | 0.13 | 0.13 | 61 | 1012.1 |
| 20260507231517 | 63 | 134 | 4.3 | 7.0 | 0.00 | 0.13 | 0.13 | 60 | 1012.0 |
| 20260507230019 | 63 | 170 | 3.5 | 5.2 | 0.00 | 0.13 | 0.13 | 59 | 1012.4 |
| 20260507224506 | 63 | 181 | 3.5 | 7.8 | 0.00 | 0.13 | 0.13 | 58 | 1012.3 |
| 20260507223008 | 64 | 170 | 1.7 | 4.3 | 0.00 | 0.13 | 0.13 | 54 | 1012.6 |
| 20260507221512 | 65 | 174 | 3.5 | 5.2 | 0.00 | 0.13 | 0.13 | 51 | 1012.5 |
| 20260507220017 | 66 | 156 | 0.9 | 5.2 | 0.00 | 0.13 | 0.13 | 44 | 1012.4 |
| 20260507214526 | 66 | 6 | 0.9 | 5.2 | 0.00 | 0.13 | 0.13 | 46 | 1012.5 |
| 20260507213006 | 65 | 72 | 1.7 | 6.1 | 0.00 | 0.13 | 0.13 | 51 | 1012.7 |
| 20260507211513 | 64 | 201 | 0.9 | 3.5 | 0.00 | 0.13 | 0.13 | 54 | 1013.2 |
| 20260507210014 | 64 | 244 | 0.9 | 4.3 | 0.00 | 0.13 | 0.13 | 59 | 1013.7 |
| 20260507204519 | 64 | 237 | 3.5 | 5.2 | 0.00 | 0.13 | 0.13 | 54 | 1013.6 |
| 20260507203024 | 65 | 188 | 6.1 | 8.7 | 0.00 | 0.13 | 0.13 | 55 | 1013.2 |
| 20260507201527 | 65 | 198 | 4.3 | 7.8 | 0.00 | 0.13 | 0.13 | 60 | 1013.4 |
| 20260507200012 | 64 | 141 | 4.3 | 7.0 | 0.00 | 0.13 | 0.13 | 58 | 1013.4 |
| 20260507194516 | 63 | 141 | 4.3 | 8.7 | 0.00 | 0.13 | 0.13 | 63 | 1013.5 |
| 20260507193020 | 63 | 142 | 3.5 | 9.6 | 0.00 | 0.13 | 0.13 | 62 | 1013.6 |
| 20260507191526 | 62 | 183 | 6.1 | 8.7 | 0.00 | 0.13 | 0.13 | 62 | 1013.6 |
| 20260507190025 | 61 | 121 | 7.0 | 9.6 | 0.00 | 0.13 | 0.13 | 62 | 1013.7 |
| 20260507184512 | 61 | 121 | 5.2 | 9.6 | 0.00 | 0.13 | 0.13 | 68 | 1013.9 |
| 20260507183020 | 60 | 122 | 3.5 | 7.8 | 0.00 | 0.13 | 0.13 | 71 | 1014.0 |
| 20260507181522 | 59 | 139 | 4.3 | 6.1 | 0.00 | 0.13 | 0.13 | 69 | 1014.0 |
| 20260507180026 | 58 | 143 | 4.3 | 7.8 | 0.00 | 0.13 | 0.13 | 73 | 1014.0 |
| 20260507174530 | 57 | 155 | 3.5 | 7.0 | 0.00 | 0.13 | 0.13 | 79 | 1013.9 |
| 20260507173027 | 56 | 155 | 2.6 | 4.3 | 0.00 | 0.13 | 0.13 | 85 | 1013.9 |
| 20260507171521 | 56 | 170 | 1.7 | 5.2 | 0.00 | 0.13 | 0.13 | 83 | 1014.0 |
| 20260507170023 | 55 | 213 | 1.7 | 4.3 | 0.01 | 0.13 | 0.13 | 86 | 1014.2 |
| 20260507164527 | 54 | 158 | 1.7 | 6.1 | 0.02 | 0.13 | 0.13 | 85 | 1014.4 |
| 20260507163024 | 53 | 68 | 1.7 | 4.3 | 0.06 | 0.13 | 0.13 | 88 | 1014.6 |
| 20260507161521 | 51 | 105 | 0.0 | 1.7 | 0.06 | 0.13 | 0.13 | 91 | 1014.6 |
| 20260507160023 | 51 | 1 | 0.0 | 0.0 | 0.06 | 0.12 | 0.12 | 90 | 1014.5 |
| 20260507154522 | 51 | 271 | 0.0 | 0.0 | 0.05 | 0.11 | 0.11 | 90 | 1014.5 |
| 20260507153027 | 51 | 265 | 0.0 | 0.9 | 0.01 | 0.07 | 0.07 | 89 | 1014.3 |
| 20260507151529 | 51 | 285 | 0.0 | 0.0 | 0.01 | 0.07 | 0.07 | 88 | 1014.1 |
| 20260507150018 | 51 | 37 | 0.0 | 0.9 | 0.00 | 0.06 | 0.06 | 89 | 1014.2 |
| 20260507144526 | 50 | 6 | 0.0 | 2.6 | 0.00 | 0.06 | 0.06 | 90 | 1014.0 |
| 20260507143025 | 50 | 293 | 0.0 | 0.0 | 0.00 | 0.06 | 0.06 | 90 | 1013.8 |
| 20260507141527 | 50 | 232 | 0.0 | 0.0 | 0.00 | 0.06 | 0.06 | 90 | 1013.4 |
| 20260507140027 | 49 | 276 | 0.0 | 0.0 | 0.00 | 0.06 | 0.06 | 92 | 1013.4 |
| 20260507134530 | 49 | 342 | 0.0 | 0.0 | 0.00 | 0.06 | 0.06 | 92 | 1013.3 |
| 20260507133022 | 48 | 342 | 0.0 | 0.0 | 0.00 | 0.06 | 0.06 | 93 | 1013.1 |
| 20260507131524 | 48 | 94 | 0.0 | 0.9 | 0.00 | 0.06 | 0.06 | 93 | 1012.8 |
| 20260507130028 | 47 | 98 | 0.0 | 1.7 | 0.00 | 0.06 | 0.06 | 92 | 1012.6 |
| 20260507124528 | 47 | 3 | 0.9 | 2.6 | 0.00 | 0.06 | 0.06 | 93 | 1012.7 |
| 20260507123029 | 47 | 37 | 0.9 | 2.6 | 0.00 | 0.06 | 0.06 | 94 | 1012.5 |
| 20260507121506 | 47 | 283 | 0.0 | 0.9 | 0.00 | 0.06 | 0.06 | 93 | 1012.3 |
| 20260507120007 | 47 | 103 | 0.0 | 0.0 | 0.00 | 0.06 | 0.06 | 93 | 1012.0 |
| 20260507114514 | 48 | 103 | 0.0 | 0.9 | 0.00 | 0.06 | 0.06 | 93 | 1012.2 |
| 20260507113018 | 47 | 23 | 1.7 | 2.6 | 0.00 | 0.06 | 0.06 | 94 | 1012.2 |
| 20260507111504 | 47 | 281 | 0.0 | 0.0 | 0.00 | 0.06 | 0.06 | 92 | 1012.0 |
| 20260507110007 | 46 | 279 | 0.0 | 0.0 | 0.00 | 0.06 | 0.06 | 94 | 1011.9 |
| 20260507104511 | 46 | 8 | 0.0 | 1.7 | 0.00 | 0.06 | 0.06 | 93 | 1011.9 |
| 20260507103015 | 47 | 114 | 0.0 | 0.0 | 0.00 | 0.06 | 0.06 | 90 | 1011.9 |
| 20260507101518 | 48 | 296 | 1.7 | 2.6 | 0.00 | 0.06 | 0.06 | 89 | 1011.9 |
| 20260507100033 | 49 | 136 | 0.0 | 0.0 | 0.00 | 0.06 | 0.06 | 88 | 1011.5 |
| 20260507094506 | 49 | 166 | 0.0 | 3.5 | 0.00 | 0.06 | 0.06 | 89 | 1011.5 |
| 20260507093017 | 49 | 100 | 0.9 | 3.5 | 0.00 | 0.06 | 0.06 | 91 | 1011.7 |
| 20260507091525 | 50 | 263 | 0.9 | 5.2 | 0.00 | 0.06 | 0.06 | 89 | 1011.8 |
| 20260507090032 | 49 | 226 | 0.0 | 3.5 | 0.00 | 0.06 | 0.06 | 89 | 1011.5 |
| 20260507084525 | 51 | 308 | 0.0 | 4.3 | 0.00 | 0.06 | 0.06 | 86 | 1011.5 |
| 20260507083009 | 52 | 349 | 3.5 | 6.1 | 0.00 | 0.06 | 0.06 | 84 | 1011.9 |
| 20260507081520 | 51 | 327 | 2.6 | 5.2 | 0.00 | 0.06 | 0.06 | 88 | 1011.7 |
| 20260507080019 | 50 | 309 | 2.6 | 5.2 | 0.03 | 0.06 | 0.06 | 88 | 1011.9 |
| 20260507074521 | 50 | 324 | 0.0 | 1.7 | 0.06 | 0.06 | 0.06 | 89 | 1011.4 |
| 20260507073026 | 51 | 108 | 0.9 | 3.5 | 0.06 | 0.06 | 0.06 | 87 | 1011.4 |
| 20260507071509 | 52 | 27 | 0.9 | 5.2 | 0.06 | 0.06 | 0.06 | 85 | 1011.6 |
| 20260507070018 | 53 | 108 | 0.0 | 4.3 | 0.03 | 0.03 | 0.03 | 81 | 1011.6 |
| 20260507064517 | 53 | 128 | 1.7 | 3.5 | 0.00 | 0.00 | 0.00 | 78 | 1011.4 |
| 20260507063026 | 53 | 353 | 1.7 | 7.0 | 0.00 | 0.00 | 0.00 | 77 | 1011.1 |
| 20260507061503 | 52 | 345 | 0.0 | 0.0 | 0.00 | 0.00 | 0.00 | 79 | 1010.7 |
| 20260507060003 | 53 | 32 | 0.0 | 2.6 | 0.00 | 0.00 | 0.00 | 78 | 1010.7 |
| 20260507054502 | 53 | 357 | 0.0 | 1.7 | 0.00 | 0.00 | 0.00 | 77 | 1010.7 |
| 20260507053003 | 54 | 83 | 0.0 | 7.0 | 0.00 | 0.00 | 0.00 | 76 | 1010.8 |
| 20260507051504 | 53 | 107 | 4.3 | 7.8 | 0.00 | 0.00 | 0.00 | 80 | 1010.8 |
| 20260507050003 | 53 | 245 | 0.0 | 4.3 | 0.00 | 0.00 | 0.00 | 81 | 1011.8 |
| 20260507044508 | 54 | 1 | 3.5 | 11.3 | 0.00 | 0.00 | 0.00 | 76 | 1011.7 |
| 20260507043004 | 55 | 302 | 1.7 | 2.6 | 0.00 | 0.00 | 0.00 | 66 | 1010.2 |
| 20260507041503 | 55 | 42 | 0.0 | 0.0 | 0.00 | 0.00 | 0.00 | 67 | 1010.1 |
| 20260507040007 | 56 | 42 | 0.0 | 0.0 | 0.00 | 0.00 | 0.00 | 66 | 1010.2 |
| 20260507034503 | 55 | 267 | 0.0 | 0.0 | 0.00 | 0.00 | 0.00 | 68 | 1010.2 |
| 20260507033004 | 56 | 33 | 0.0 | 0.0 | 0.00 | 0.00 | 0.00 | 65 | 1010.1 |
| 20260507031503 | 57 | 15 | 0.0 | 1.7 | 0.00 | 0.00 | 0.00 | 63 | 1010.2 |
| 20260507030004 | 58 | 329 | 0.0 | 0.9 | 0.00 | 0.00 | 0.00 | 61 | 1009.9 |
| 20260507024503 | 60 | 330 | 0.0 | 3.5 | 0.00 | 0.00 | 0.00 | 53 | 1009.8 |
| 20260507023004 | 60 | 284 | 0.0 | 1.7 | 0.00 | 0.00 | 0.00 | 59 | 1009.9 |
| 20260507021504 | 61 | 139 | 0.9 | 1.7 | 0.00 | 0.00 | 0.00 | 56 | 1009.7 |
| 20260507020004 | 62 | 205 | 0.0 | 2.6 | 0.00 | 0.00 | 0.00 | 56 | 1009.8 |
| 20260507014505 | 62 | 334 | 0.0 | 1.7 | 0.00 | 0.00 | 0.00 | 48 | 1009.9 |
| 20260507013006 | 63 | 23 | 0.0 | 2.6 | 0.00 | 0.00 | 0.00 | 47 | 1010.0 |
| 20260507011505 | 64 | 196 | 0.0 | 0.9 | 0.00 | 0.00 | 0.00 | 48 | 1010.0 |
| 20260507010006 | 64 | 155 | 0.0 | 1.7 | 0.00 | 0.00 | 0.00 | 49 | 1010.0 |
| 20260507004506 | 64 | 135 | 0.9 | 1.7 | 0.00 | 0.00 | 0.00 | 45 | 1010.1 |
| 20260507003007 | 65 | 154 | 1.7 | 2.6 | 0.00 | 0.00 | 0.00 | 44 | 1010.1 |
| 20260507001505 | 65 | 153 | 1.7 | 4.3 | 0.00 | 0.00 | 0.00 | 46 | 1010.3 |
| 20260507000012 | 65 | 153 | 3.5 | 7.0 | 0.00 | 0.00 | 0.00 | 44 | 1010.3 |